TimeCDT,TemperatureF,Dew PointF,Humidity,Sea Level PressureIn,VisibilityMPH,Wind Direction,Wind SpeedMPH,Gust SpeedMPH,PrecipitationIn,Events,Conditions,WindDirDegrees,DateUTC
12:52 AM,73.0,71.1,93,30.28,8.0,NNW,3.5,-,N/A,,Clear,330,2013-07-17 05:52:00
1:52 AM,72.0,70.0,93,30.27,8.0,Calm,Calm,-,N/A,,Clear,0,2013-07-17 06:52:00
2:20 AM,71.6,69.8,94,30.28,1.5,Calm,Calm,-,N/A,,Clear,0,2013-07-17 07:20:00
2:38 AM,73.4,71.6,94,30.29,0.8,Calm,Calm,-,N/A,,Clear,0,2013-07-17 07:38:00
2:45 AM,71.6,71.6,100,30.29,2.5,Calm,Calm,-,N/A,,Clear,0,2013-07-17 07:45:00
3:25 AM,73.4,71.6,94,30.29,1.2,Calm,Calm,-,N/A,,Clear,0,2013-07-17 08:25:00
3:30 AM,73.4,71.6,94,30.29,3.0,Calm,Calm,-,N/A,,Clear,0,2013-07-17 08:30:00
3:34 AM,71.6,71.6,100,30.30,1.5,Calm,Calm,-,N/A,,Clear,0,2013-07-17 08:34:00
3:43 AM,71.6,69.8,94,30.29,0.5,Calm,Calm,-,N/A,Fog,Fog,0,2013-07-17 08:43:00
3:50 AM,71.6,69.8,94,30.30,2.0,Calm,Calm,-,N/A,,Clear,0,2013-07-17 08:50:00
3:52 AM,71.1,70.0,96,30.28,2.5,Calm,Calm,-,N/A,,Clear,0,2013-07-17 08:52:00
3:58 AM,71.6,69.8,94,30.30,1.2,Calm,Calm,-,N/A,,Partly Cloudy,0,2013-07-17 08:58:00
4:08 AM,71.6,69.8,94,30.29,3.0,Calm,Calm,-,N/A,,Clear,0,2013-07-17 09:08:00
4:52 AM,70.0,69.1,97,30.29,3.0,Calm,Calm,-,N/A,,Clear,0,2013-07-17 09:52:00
4:57 AM,71.6,69.8,94,30.30,1.8,Calm,Calm,-,N/A,,Clear,0,2013-07-17 09:57:00
5:21 AM,69.8,69.8,100,30.30,4.0,Calm,Calm,-,N/A,,Clear,0,2013-07-17 10:21:00
5:30 AM,69.8,69.8,100,30.31,1.8,Calm,Calm,-,N/A,,Clear,0,2013-07-17 10:30:00
5:42 AM,69.8,69.8,100,30.31,3.0,Calm,Calm,-,N/A,,Clear,0,2013-07-17 10:42:00
5:52 AM,70.0,69.1,97,30.30,3.0,Calm,Calm,-,N/A,,Clear,0,2013-07-17 10:52:00
6:16 AM,69.8,69.8,100,30.32,1.8,Calm,Calm,-,N/A,,Clear,0,2013-07-17 11:16:00
6:27 AM,71.6,69.8,94,30.32,0.5,Calm,Calm,-,N/A,Fog,Fog,0,2013-07-17 11:27:00
6:36 AM,71.6,71.6,100,30.33,2.0,Calm,Calm,-,N/A,,Clear,0,2013-07-17 11:36:00
6:43 AM,73.4,71.6,94,30.33,6.0,Calm,Calm,-,N/A,,Clear,0,2013-07-17 11:43:00
6:52 AM,73.9,72.0,93,30.32,8.0,Calm,Calm,-,N/A,,Clear,0,2013-07-17 11:52:00
7:52 AM,79.0,73.9,84,30.33,9.0,Calm,Calm,-,N/A,,Clear,0,2013-07-17 12:52:00
8:52 AM,84.0,73.0,69,30.33,10.0,East,3.5,-,N/A,,Clear,90,2013-07-17 13:52:00
9:52 AM,88.0,71.1,57,30.32,10.0,Variable,3.5,-,N/A,,Clear,0,2013-07-17 14:52:00
10:52 AM,90.0,71.1,54,30.31,10.0,North,3.5,-,N/A,,Scattered Clouds,360,2013-07-17 15:52:00
11:52 AM,91.0,66.9,45,30.31,10.0,WNW,4.6,-,N/A,,Scattered Clouds,300,2013-07-17 16:52:00
12:52 PM,90.0,69.1,50,30.30,10.0,North,3.5,-,N/A,,Scattered Clouds,10,2013-07-17 17:52:00
1:52 PM,91.9,66.9,44,30.28,10.0,NNW,3.5,-,N/A,,Clear,340,2013-07-17 18:52:00
2:52 PM,91.0,68.0,47,30.26,10.0,Calm,Calm,-,N/A,,Mostly Cloudy,0,2013-07-17 19:52:00
3:52 PM,93.0,69.1,45,30.23,10.0,Calm,Calm,-,N/A,,Clear,0,2013-07-17 20:52:00
4:52 PM,93.0,70.0,47,30.22,10.0,NW,5.8,-,N/A,,Clear,310,2013-07-17 21:52:00
5:52 PM,93.0,68.0,44,30.20,10.0,NNW,4.6,-,N/A,,Clear,340,2013-07-17 22:52:00
6:52 PM,91.9,68.0,45,30.19,10.0,NNE,4.6,-,N/A,,Clear,30,2013-07-17 23:52:00
7:52 PM,87.1,77.0,72,30.19,10.0,Calm,Calm,-,N/A,,Clear,0,2013-07-18 00:52:00
8:52 PM,81.0,73.0,77,30.19,10.0,Calm,Calm,-,N/A,,Clear,0,2013-07-18 01:52:00
9:52 PM,80.1,73.0,79,30.21,10.0,Calm,Calm,-,N/A,,Clear,0,2013-07-18 02:52:00
10:52 PM,77.0,73.0,88,30.21,10.0,Calm,Calm,-,N/A,,Clear,0,2013-07-18 03:52:00
11:52 PM,75.9,73.0,91,30.21,10.0,Calm,Calm,-,N/A,,Clear,0,2013-07-18 04:52:00